This demonstration page uses our WeatherBlox Daily Observations layout. Learn more.

Left ArrowRight Arrow

44.89941, -97.11507

Hourly Observations for October 27, 2021

Temp ( °F °C ) Dew Point ( °F °C ) Humidity (%) Winds ( mph kmh ) Pressure ( in mb ) Visibility ( mi km ) Precip ( " mm )
12:43 am 00:43 Cloudy 50 10 42 5.6 74 74 SSE 16 26 29.68 1005 10 16 0.00 0.00
12:53 am 00:53 Cloudy 50 10 42 5.6 74 74 SE 14 22 29.68 1005 10 16 0.00 0.00
1:53 am 01:53 Cloudy with Light Rain 48 8.9 44 6.7 86 86 SE 13 20 29.70 1006 5 8 0.00 0.00
2:13 am 02:13 Cloudy with Rain 47 8.3 46 7.8 97 97 SSE 10 17 29.74 1007 3 4 0.02 0.51
2:32 am 02:32 Cloudy with Light Rain 47 8.3 46 7.8 97 97 SSE 10 17 29.73 1007 5 8 0.11 2.79
2:50 am 02:50 Cloudy with Rain 46 8 46 8 100 100 SSE 9 15 29.72 1007 6 10 0.13 3.30
2:53 am 02:53 Cloudy with Light Rain 47 8.3 46 7.8 97 97 SSE 7 11 29.71 1006 6 10 0.13 3.30
3:29 am 03:29 Cloudy with Light Rain 47 8.3 46 7.8 97 97 ESE 7 11 29.69 1005 10 16 0.02 0.51
3:53 am 03:53 Cloudy with Light Rain 47 8.3 46 7.8 97 97 ESE 6 9 29.67 1005 10 16 0.02 0.51
4:18 am 04:18 Cloudy with Light Rain 47 8.3 46 7.8 97 97 E 9 15 29.65 1004 10 16 0.00 0.00
4:38 am 04:38 Cloudy 48 8.9 46 7.8 93 93 ESE 12 19 29.66 1004 10 16 0.00 0.00
4:50 am 04:50 Cloudy 48 9 46 8 94 94 SE 13 20 29.71 1006 10 16 0.00 0.00
4:53 am 04:53 Cloudy 48 8.9 46 7.8 93 93 SE 10 17 29.70 1006 10 16 0.00 0.00
5:32 am 05:32 Cloudy with Light Rain 48 8.9 46 7.8 93 93 SE 12 19 29.67 1005 9 14 0.05 1.27
5:44 am 05:44 Cloudy with Light Rain 48 8.9 46 7.8 93 93 SE 8 13 29.67 1005 10 16 0.05 1.27
5:53 am 05:53 Cloudy with Light Rain 48 8.9 47 8.3 96 96 SE 12 19 29.67 1005 10 16 0.05 1.27
6:20 am 06:20 Cloudy with Light Rain 48 8.9 47 8.3 96 96 SE 15 24 29.67 1005 7 11 0.02 0.51
6:53 am 06:53 Cloudy with Light Rain 48 8.9 47 8.3 96 96 ESE 10 17 29.63 1004 6 10 0.03 0.76
7:00 am 07:00 Cloudy with Rain 48 8.9 47 8.3 96 96 SE 9 15 29.64 1004 6 10 0.02 0.51
7:18 am 07:18 Cloudy with Light Rain 49 9.4 47 8.3 93 93 SE 5 7 29.65 1004 8 13 0.04 1.02
7:28 am 07:28 Cloudy with Light Rain 49 9.4 47 8.3 93 93 ESE 5 7 29.65 1004 8 13 0.05 1.27
7:53 am 07:53 Cloudy with Light Rain 49 9.4 47 8.3 93 93 S 6 9 29.68 1005 10 16 0.05 1.27
8:15 am 08:15 Cloudy with Rain 48 8.9 47 8.3 96 96 S 7 11 29.68 1005 4 6 0.03 0.76
8:53 am 08:53 Cloudy with Light Rain 48 8.9 47 8.3 96 96 SE 8 13 29.67 1005 5 8 0.09 2.29
9:07 am 09:07 Cloudy with Rain 48 8.9 47 8.3 96 96 SE 6 9 29.68 1005 3 5 0.03 0.76
9:33 am 09:33 Cloudy with Heavy Rain 48 8.9 47 8.3 96 96 SE 7 11 29.69 1005 3 4 0.11 2.79
9:43 am 09:43 Cloudy with Rain 48 8.9 47 8.3 96 96 SE 9 15 29.69 1005 3 5 0.14 3.56
9:53 am 09:53 Cloudy with Rain 48 8.9 47 8.3 96 96 SSE 7 11 29.69 1005 3 4 0.17 4.32
9:58 am 09:58 Cloudy with Rain 48 8.9 47 8.3 96 96 SE 7 11 29.70 1006 3 5 0.01 0.25
10:11 am 10:11 Cloudy with Heavy Rain 48 8.9 47 8.3 96 96 SE 7 11 29.70 1006 2 3 0.08 2.03
10:18 am 10:18 Cloudy with Heavy Rain 48 8.9 47 8.3 96 96 SE 6 9 29.70 1006 2 3 0.12 3.05
10:23 am 10:23 Cloudy with Heavy Rain 48 8.9 47 8.3 96 96 SE 7 11 29.70 1006 2 3 0.14 3.56
10:53 am 10:53 Cloudy with Rain 48 8.9 47 8.3 96 96 ESE 3 6 29.68 1005 3 5 0.25 6.35
11:14 am 11:14 Cloudy with Heavy Rain 48 8.9 47 8.3 96 96 Calm 29.69 1005 3 4 0.07 1.78
11:24 am 11:24 Cloudy with Rain 48 8.9 47 8.3 96 96 E 3 6 29.68 1005 4 6 0.10 2.54
11:53 am 11:53 Cloudy with Light Rain 49 9.4 48 8.9 97 97 Calm 29.67 1005 5 8 0.13 3.30
12:09 pm 12:09 Cloudy with Light Rain 49 9.4 48 8.9 97 97 ESE 5 7 29.67 1005 8 13 0.01 0.25
12:30 pm 12:30 Cloudy with Light Rain 49 9.4 48 8.9 97 97 ESE 6 9 29.67 1005 4 6 0.02 0.51
12:41 pm 12:41 Cloudy with Light Rain 49 9.4 48 8.9 97 97 SE 5 7 29.67 1005 4 6 0.03 0.76
12:53 pm 12:53 Cloudy with Light Rain 49 9.4 48 8.9 97 97 ESE 5 7 29.67 1005 3 5 0.03 0.76
1:36 pm 13:36 Cloudy with Light Rain 49 9.4 48 8.9 97 97 SSE 3 6 29.65 1004 3 5 0.02 0.51
1:53 pm 13:53 Cloudy with Rain 49 9.4 48 8.9 97 97 SE 6 9 29.66 1005 3 5 0.06 1.52
2:01 pm 14:01 Cloudy with Heavy Rain 49 9.4 48 8.9 97 97 SE 5 7 29.66 1005 3 4 0.03 0.76
2:06 pm 14:06 Cloudy with Rain 49 9.4 48 8.9 97 97 SE 5 7 29.66 1005 3 5 0.05 1.27
2:13 pm 14:13 Cloudy with Rain 49 9.4 48 8.9 97 97 SSE 5 7 29.66 1005 4 6 0.07 1.78
2:27 pm 14:27 Cloudy with Rain 49 9.4 48 8.9 97 97 SSE 5 7 29.65 1004 4 6 0.10 2.54
2:53 pm 14:53 Cloudy with Rain 49 9.4 48 8.9 97 97 Calm 29.65 1004 5 8 0.13 3.30
3:00 pm 15:00 Cloudy with Light Rain 50 10 48 8.9 93 93 Calm 29.65 1004 5 8 0.01 0.25
3:19 pm 15:19 Cloudy with Light Rain 50 10 48 8.9 93 93 WSW 3 6 29.65 1004 5 8 0.03 0.76
3:53 pm 15:53 Cloudy with Light Rain 49 9.4 48 8.9 97 97 WNW 3 6 29.66 1004 5 8 0.07 1.78
4:03 pm 16:03 Cloudy with Light Rain 49 9.4 48 8.9 97 97 NW 5 7 29.66 1005 5 8 0.01 0.25
4:53 pm 16:53 Cloudy with Light Rain 49 9.4 48 8.9 97 97 NW 7 11 29.67 1005 6 10 0.07 1.78
5:25 pm 17:25 Cloudy with Light Rain 49 9.4 48 8.9 97 97 NW 8 13 29.67 1005 5 8 0.03 0.76
5:51 pm 17:51 Cloudy with Light Rain 48 9 48 9 100 100 WNW 7 11 29.69 1005 7 11 0.05 1.27
5:53 pm 17:53 Cloudy with Light Rain 49 9.4 48 8.9 97 97 WNW 8 13 29.69 1005 7 11 0.05 1.27
6:35 pm 18:35 Cloudy with Light Rain 48 8.9 47 8.3 96 96 NW 12 19 29.71 1006 10 16 0.02 0.51
6:43 pm 18:43 Cloudy with Light Rain 48 8.9 47 8.3 96 96 NW 13 20 29.71 1006 10 16 0.02 0.51
6:53 pm 18:53 Cloudy with Light Rain 47 8.3 46 7.8 97 97 NW 16 26 29.71 1006 10 16 0.02 0.51
7:53 pm 19:53 Cloudy with Light Rain 47 8.3 46 7.8 97 97 NNW 13 20 29.73 1007 10 16 0.01 0.25
8:45 pm 20:45 Cloudy with Light Rain 46 7.8 45 7.2 96 96 NNW 12 19 29.74 1007 10 16 0.03 0.76
8:53 pm 20:53 Cloudy with Light Rain 46 7.8 45 7.2 96 96 NNW 12 19 29.75 1007 9 14 0.03 0.76
9:53 pm 21:53 Cloudy with Light Rain 46 7.8 44 6.7 93 93 N 10 17 29.75 1008 10 16 0.02 0.51
10:47 pm 22:47 Cloudy 46 8 45 7 93 93 NW 10 17 29.76 1008 10 16 0.00 0.00
10:48 pm 22:48 Cloudy 46 7.8 44 6.7 93 93 NW 10 17 29.76 1008 10 16 0.00 0.00
10:57 pm 22:57 Cloudy 46 7.8 45 7.2 96 96 NW 12 19 29.76 1008 10 16 0.00 0.00
11:13 pm 23:13 Cloudy 46 7.8 44 6.7 93 93 NNW 12 19 29.77 1008 10 16 0.00 0.00
11:27 pm 23:27 Cloudy 46 7.8 44 6.7 93 93 NNW 12 19 29.76 1008 10 16 0.00 0.00
11:53 pm 23:53 Cloudy 46 7.8 44 6.7 93 93 NW 9 15 29.76 1008 10 16 0.00 0.00

Powered by AerisWeather